This demonstration page uses our WeatherBlox Daily Observations layout. Learn more.

Left ArrowRight Arrow

39.92423, -83.80882

Hourly Observations for June 10, 2018

Temp ( °F °C ) Dew Point ( °F °C ) Humidity (%) Winds ( mph kmh ) Pressure ( in mb ) Visibility ( mi km ) Precip ( " mm )
12:56 am 00:56 Clear 66 18.9 65 18.3 96 96 E 3 6 29.97 1015 9 14 N/A
1:56 am 01:56 Clear 66 18.9 65 18.3 96 96 S 3 6 29.95 1014 10 16 N/A
2:56 am 02:56 Clear 66 18.9 64 17.8 93 93 N N/A 29.93 1014 9 14 N/A
3:56 am 03:56 Clear 66 18.9 65 18.3 96 96 SW 6 9 29.93 1014 7 11 N/A
4:56 am 04:56 Mostly Clear with Mist and Fog 65 18.3 64 17.8 97 97 SW 3 6 29.92 1013 3 4 N/A
5:23 am 05:23 Mostly Clear with Mist and Fog 64 18 64 18 100 100 W 6 9 29.91 1013 3 5 N/A
5:56 am 05:56 Mostly Clear with Mist and Fog 66 18.9 65 18.3 96 96 W 6 9 29.94 1014 3 4 N/A
6:07 am 06:07 Partly Cloudy with Mist and Fog 66 19 66 19 100 100 WSW 6 9 29.94 1014 2 2 N/A
6:56 am 06:56 Partly Cloudy with Mist and Fog 66 18.9 66 18.9 100 100 N N/A 29.95 1014 2 2 N/A
7:35 am 07:35 Partly Cloudy with Mist and Fog 66 19 66 19 100 100 SSW 5 7 29.94 1014 3 4 N/A
7:56 am 07:56 Partly Cloudy with Mist and Fog 68 20 67 19.4 96 96 WSW 8 13 29.96 1015 3 4 N/A
8:03 am 08:03 Partly Cloudy with Mist and Fog 68 20 66 19 94 94 WSW 8 13 29.94 1014 4 6 N/A
8:56 am 08:56 Sunny 70 21.1 67 19.4 90 90 W 9 15 29.96 1015 10 16 N/A
9:56 am 09:56 Sunny 72 22.2 67 19.4 84 84 WSW 8 13 29.97 1015 10 16 N/A
10:56 am 10:56 Sunny 75 23.9 66 18.9 74 74 SSW 5 7 29.92 1013 10 16 N/A
11:56 am 11:56 Sunny 77 25 67 19.4 71 71 S 7 11 29.90 1012 10 16 N/A
12:56 pm 12:56 Sunny 76 24.4 68 20 77 77 SW 9 15 29.93 1014 10 16 N/A
1:56 pm 13:56 Sunny 75 23.9 67 19.4 76 76 W 13 20 29.92 1013 10 16 N/A
2:56 pm 14:56 Partly Cloudy with Light Rain 70 21.1 66 18.9 87 87 WSW 14 22 29.92 1013 10 16 N/A
3:56 pm 15:56 Sunny 73 22.8 67 19.4 81 81 W 14 22 29.87 1012 10 16 0.01 0.25
4:56 pm 16:56 Sunny 74 23.3 67 19.4 79 79 WNW 9 15 29.85 1011 10 16 N/A
5:56 pm 17:56 Sunny 76 24.4 66 18.9 72 72 W 9 15 29.85 1011 10 16 N/A
6:56 pm 18:56 Sunny 75 23.9 66 18.9 74 74 W 9 15 29.86 1011 10 16 N/A
7:56 pm 19:56 Sunny 73 22.8 67 19.4 81 81 N N/A 29.86 1011 10 16 N/A
8:56 pm 20:56 Sunny 71 21.7 67 19.4 87 87 NNE 3 6 29.86 1011 10 16 N/A
9:56 pm 21:56 Clear 70 21.1 68 20 93 93 N N/A 29.84 1011 10 16 N/A
10:56 pm 22:56 Clear 70 21.1 67 19.4 90 90 SW 5 7 29.86 1011 10 16 N/A
11:56 pm 23:56 Clear 68 20 66 18.9 93 93 SW 5 7 29.86 1011 10 16 N/A

Powered by AerisWeather